Location: Bishop�s Knoyle
(51.0728°N, 2.1714°W)
Time: 00:56:41
(UTC+00:00)

ISS - Pass Details

Date: 01 October 2021
Orbit: 417 x 423 km, 51.6° (Epoch: 27 October)

Event Time Altitude Azimuth Distance (km) Brightness Sun altitude
Rises 18:13:41 0° 282° (WNW) 2,366 2.3 -5.1°
Reaches altitude 10° 18:15:47 10° 281° (W) 1,501 0.8 -5.5°
Maximum altitude 18:19:09 81° 195° (SSW) 430 -3.7 -6.0°
Drops below altitude 10° 18:22:31 10° 108° (ESE) 1,501 -1.6 -6.5°
Enters shadow 18:22:54 - 107° (ESE) 1,655 -1.4 -6.6°
